Time,TemperatureF,DewpointF,PressureIn,WindDirection,WindDirectionDegrees,WindSpeedMPH,WindSpeedGustMPH,Humidity,HourlyPrecipIn,Conditions,Clouds,dailyrainin,SoftwareType,DateUTC
2013-01-03 00:03:00,20.7,16.4,30.02,WSW,248,2.0,4.0,83,0.00,,,0.00,Wunderground v.1.15,2013-01-03 06:03:00,
2013-01-03 00:08:00,20.7,16.4,30.02,WSW,245,2.0,4.0,83,0.00,,,0.00,Wunderground v.1.15,2013-01-03 06:08:00,
2013-01-03 00:13:00,20.7,16.4,30.02,West,274,2.0,4.0,83,0.00,,,0.00,Wunderground v.1.15,2013-01-03 06:13:00,
2013-01-03 00:19:00,20.7,16.4,30.01,SW,228,2.0,2.0,83,0.00,,,0.00,Wunderground v.1.15,2013-01-03 06:19:00,
2013-01-03 00:24:00,20.7,16.4,30.02,WSW,238,3.0,3.0,83,0.00,,,0.00,Wunderground v.1.15,2013-01-03 06:24:00,
2013-01-03 00:29:00,20.8,16.5,30.02,WSW,250,3.0,5.0,83,0.00,,,0.00,Wunderground v.1.15,2013-01-03 06:29:00,
2013-01-03 00:34:00,20.8,16.7,30.02,West,267,4.0,5.0,84,0.00,,,0.00,Wunderground v.1.15,2013-01-03 06:34:00,
2013-01-03 00:39:00,20.8,16.7,30.02,West,265,4.0,4.0,84,0.00,,,0.00,Wunderground v.1.15,2013-01-03 06:39:00,
2013-01-03 00:44:00,20.7,16.6,30.02,WNW,290,3.0,4.0,84,0.00,,,0.00,Wunderground v.1.15,2013-01-03 06:44:00,
2013-01-03 00:54:00,20.7,16.6,30.01,WSW,243,3.0,3.0,84,0.00,,,0.00,Wunderground v.1.15,2013-01-03 06:54:00,
2013-01-03 01:04:00,20.7,16.6,30.01,WSW,248,2.0,4.0,84,0.00,,,0.00,Wunderground v.1.15,2013-01-03 07:04:00,
2013-01-03 01:09:00,20.7,16.6,30.02,WSW,255,2.0,2.0,84,0.00,,,0.00,Wunderground v.1.15,2013-01-03 07:09:00,
2013-01-03 01:14:00,20.7,16.6,30.02,WSW,242,2.0,2.0,84,0.00,,,0.00,Wunderground v.1.15,2013-01-03 07:14:00,
2013-01-03 01:19:00,20.7,16.6,30.02,West,259,3.0,5.0,84,0.00,,,0.00,Wunderground v.1.15,2013-01-03 07:19:00,
2013-01-03 01:29:00,20.7,16.9,30.02,West,276,3.0,3.0,85,0.00,,,0.00,Wunderground v.1.15,2013-01-03 07:29:00,
2013-01-03 01:34:00,20.7,16.9,30.03,WNW,293,3.0,4.0,85,0.00,,,0.00,Wunderground v.1.15,2013-01-03 07:34:00,
2013-01-03 01:44:00,20.7,16.9,30.03,WSW,248,3.0,3.0,85,0.00,,,0.00,Wunderground v.1.15,2013-01-03 07:44:00,
2013-01-03 01:49:00,20.8,17.0,30.03,WSW,246,3.0,3.0,85,0.00,,,0.00,Wunderground v.1.15,2013-01-03 07:49:00,
2013-01-03 01:54:00,20.8,17.0,30.03,West,263,3.0,3.0,85,0.00,,,0.00,Wunderground v.1.15,2013-01-03 07:54:00,
2013-01-03 01:59:00,20.8,17.0,30.03,WSW,250,3.0,3.0,85,0.00,,,0.00,Wunderground v.1.15,2013-01-03 07:59:00,
2013-01-03 02:09:00,20.8,17.0,30.04,WNW,284,2.0,3.0,85,0.00,,,0.00,Wunderground v.1.15,2013-01-03 08:09:00,
2013-01-03 02:14:00,20.9,17.1,30.03,West,259,3.0,3.0,85,0.00,,,0.00,Wunderground v.1.15,2013-01-03 08:14:00,
2013-01-03 02:19:00,20.9,17.1,30.03,WSW,242,3.0,3.0,85,0.00,,,0.00,Wunderground v.1.15,2013-01-03 08:19:00,
2013-01-03 02:24:00,20.9,17.1,30.04,SW,222,3.0,3.0,85,0.00,,,0.00,Wunderground v.1.15,2013-01-03 08:24:00,
2013-01-03 02:33:00,20.9,17.4,30.03,WSW,246,3.0,5.0,86,0.00,,,0.00,Wunderground v.1.15,2013-01-03 08:33:00,
2013-01-03 02:38:00,20.9,17.4,30.03,West,266,3.0,3.0,86,0.00,,,0.00,Wunderground v.1.15,2013-01-03 08:38:00,
2013-01-03 02:43:00,20.9,17.4,30.03,SW,232,2.0,3.0,86,0.00,,,0.00,Wunderground v.1.15,2013-01-03 08:43:00,
2013-01-03 02:48:00,20.9,17.4,30.03,WSW,248,2.0,2.0,86,0.00,,,0.00,Wunderground v.1.15,2013-01-03 08:48:00,
2013-01-03 02:53:00,20.9,17.4,30.03,SW,232,2.0,3.0,86,0.00,,,0.00,Wunderground v.1.15,2013-01-03 08:53:00,
2013-01-03 02:59:00,20.9,17.4,30.03,SW,228,2.0,2.0,86,0.00,,,0.00,Wunderground v.1.15,2013-01-03 08:59:00,
2013-01-03 03:09:00,21.0,17.7,30.02,WSW,253,3.0,3.0,87,0.00,,,0.00,Wunderground v.1.15,2013-01-03 09:09:00,
2013-01-03 03:18:00,21.0,17.7,30.02,NW,319,2.0,2.0,87,0.00,,,0.00,Wunderground v.1.15,2013-01-03 09:18:00,
2013-01-03 03:23:00,21.0,17.7,30.03,West,260,2.0,3.0,87,0.00,,,0.00,Wunderground v.1.15,2013-01-03 09:23:00,
2013-01-03 03:28:00,21.1,17.8,30.03,West,262,3.0,3.0,87,0.00,,,0.00,Wunderground v.1.15,2013-01-03 09:28:00,
2013-01-03 03:33:00,21.0,17.7,30.03,West,276,2.0,3.0,87,0.00,,,0.00,Wunderground v.1.15,2013-01-03 09:33:00,
2013-01-03 03:43:00,21.1,17.8,30.03,West,270,3.0,3.0,87,0.00,,,0.00,Wunderground v.1.15,2013-01-03 09:43:00,
2013-01-03 03:53:00,21.1,17.8,30.03,SW,235,2.0,2.0,87,0.00,,,0.00,Wunderground v.1.15,2013-01-03 09:53:00,
2013-01-03 03:58:00,21.1,17.8,30.03,WSW,251,2.0,2.0,87,0.00,,,0.00,Wunderground v.1.15,2013-01-03 09:58:00,
2013-01-03 04:08:00,21.1,18.1,30.03,WSW,248,3.0,3.0,88,0.00,,,0.00,Wunderground v.1.15,2013-01-03 10:08:00,
2013-01-03 04:18:00,21.2,18.2,30.03,West,271,3.0,3.0,88,0.00,,,0.00,Wunderground v.1.15,2013-01-03 10:18:00,
2013-01-03 04:23:00,21.2,18.2,30.03,WNW,288,3.0,3.0,88,0.00,,,0.00,Wunderground v.1.15,2013-01-03 10:23:00,
2013-01-03 04:28:00,21.2,18.2,30.03,WSW,248,3.0,4.0,88,0.00,,,0.00,Wunderground v.1.15,2013-01-03 10:28:00,
2013-01-03 04:33:00,21.2,17.9,30.03,WSW,248,3.0,4.0,87,0.00,,,0.00,Wunderground v.1.15,2013-01-03 10:33:00,
2013-01-03 04:38:00,21.2,17.9,30.03,WSW,257,3.0,3.0,87,0.00,,,0.00,Wunderground v.1.15,2013-01-03 10:38:00,
2013-01-03 04:43:00,21.2,17.9,30.03,SSW,203,3.0,3.0,87,0.00,,,0.00,Wunderground v.1.15,2013-01-03 10:43:00,
2013-01-03 04:53:00,21.2,18.2,30.03,WSW,245,3.0,3.0,88,0.00,,,0.00,Wunderground v.1.15,2013-01-03 10:53:00,
2013-01-03 04:58:00,21.2,18.2,30.03,WNW,288,3.0,3.0,88,0.00,,,0.00,Wunderground v.1.15,2013-01-03 10:58:00,
2013-01-03 05:08:00,21.3,18.3,30.04,WSW,250,3.0,3.0,88,0.00,,,0.00,Wunderground v.1.15,2013-01-03 11:08:00,
2013-01-03 05:14:00,21.3,18.3,30.04,West,259,4.0,5.0,88,0.00,,,0.00,Wunderground v.1.15,2013-01-03 11:14:00,
2013-01-03 05:24:00,21.4,18.1,30.04,WNW,294,4.0,5.0,87,0.00,,,0.00,Wunderground v.1.15,2013-01-03 11:24:00,
2013-01-03 05:29:00,21.4,18.1,30.04,SW,226,4.0,4.0,87,0.00,,,0.00,Wunderground v.1.15,2013-01-03 11:29:00,
2013-01-03 05:34:00,21.4,18.4,30.04,WNW,285,4.0,4.0,88,0.00,,,0.00,Wunderground v.1.15,2013-01-03 11:34:00,
2013-01-03 05:39:00,21.4,18.4,30.05,West,274,3.0,3.0,88,0.00,,,0.00,Wunderground v.1.15,2013-01-03 11:39:00,
2013-01-03 05:44:00,21.4,18.4,30.05,WNW,285,3.0,3.0,88,0.00,,,0.00,Wunderground v.1.15,2013-01-03 11:44:00,
2013-01-03 05:54:00,21.4,18.1,30.05,West,263,3.0,4.0,87,0.00,,,0.00,Wunderground v.1.15,2013-01-03 11:54:00,
2013-01-03 05:59:00,21.4,18.1,30.06,WSW,252,3.0,3.0,87,0.00,,,0.00,Wunderground v.1.15,2013-01-03 11:59:00,
2013-01-03 06:09:00,21.4,18.1,30.06,NW,308,2.0,4.0,87,0.00,,,0.00,Wunderground v.1.15,2013-01-03 12:09:00,
2013-01-03 06:14:00,21.4,18.1,30.06,WSW,245,2.0,4.0,87,0.00,,,0.00,Wunderground v.1.15,2013-01-03 12:14:00,
2013-01-03 06:19:00,21.5,18.2,30.06,West,277,3.0,3.0,87,0.00,,,0.00,Wunderground v.1.15,2013-01-03 12:19:00,
2013-01-03 06:24:00,21.5,18.2,30.07,West,263,2.0,3.0,87,0.00,,,0.00,Wunderground v.1.15,2013-01-03 12:24:00,
2013-01-03 06:34:00,21.5,18.2,30.07,West,278,2.0,2.0,87,0.00,,,0.00,Wunderground v.1.15,2013-01-03 12:34:00,
2013-01-03 06:44:00,21.5,18.2,30.08,West,276,2.0,3.0,87,0.00,,,0.00,Wunderground v.1.15,2013-01-03 12:44:00,
2013-01-03 06:49:00,21.4,18.1,30.08,WSW,238,2.0,3.0,87,0.00,,,0.00,Wunderground v.1.15,2013-01-03 12:49:00,
2013-01-03 06:54:00,21.5,18.2,30.08,WSW,238,2.0,3.0,87,0.00,,,0.00,Wunderground v.1.15,2013-01-03 12:54:00,
2013-01-03 06:59:00,21.5,18.2,30.08,West,269,2.0,2.0,87,0.00,,,0.00,Wunderground v.1.15,2013-01-03 12:59:00,
2013-01-03 07:09:00,21.5,18.2,30.09,West,263,2.0,2.0,87,0.00,,,0.00,Wunderground v.1.15,2013-01-03 13:09:00,
2013-01-03 07:14:00,21.4,18.1,30.09,West,269,1.0,2.0,87,0.00,,,0.00,Wunderground v.1.15,2013-01-03 13:14:00,
2013-01-03 07:19:00,21.5,18.2,30.09,SW,232,1.0,1.0,87,0.00,,,0.00,Wunderground v.1.15,2013-01-03 13:19:00,
2013-01-03 07:28:00,21.5,18.2,30.10,West,271,1.0,2.0,87,0.00,,,0.00,Wunderground v.1.15,2013-01-03 13:28:00,
2013-01-03 07:33:00,21.5,18.2,30.10,WSW,245,2.0,2.0,87,0.00,,,0.00,Wunderground v.1.15,2013-01-03 13:33:00,
2013-01-03 07:38:00,21.5,18.2,30.10,WSW,243,2.0,3.0,87,0.00,,,0.00,Wunderground v.1.15,2013-01-03 13:38:00,
2013-01-03 07:43:00,21.5,18.2,30.10,West,262,2.0,3.0,87,0.00,,,0.00,Wunderground v.1.15,2013-01-03 13:43:00,
2013-01-03 07:48:00,21.5,18.2,30.10,WNW,290,2.0,2.0,87,0.00,,,0.00,Wunderground v.1.15,2013-01-03 13:48:00,
2013-01-03 07:54:00,21.6,18.1,30.10,WSW,250,2.0,2.0,86,0.00,,,0.00,Wunderground v.1.15,2013-01-03 13:54:00,
2013-01-03 07:59:00,21.5,18.2,30.10,West,280,1.0,1.0,87,0.00,,,0.00,Wunderground v.1.15,2013-01-03 13:59:00,
2013-01-03 08:08:00,21.6,18.1,30.11,WSW,257,2.0,2.0,86,0.00,,,0.00,Wunderground v.1.15,2013-01-03 14:08:00,
2013-01-03 08:14:00,21.6,18.1,30.11,WSW,242,2.0,2.0,86,0.00,,,0.00,Wunderground v.1.15,2013-01-03 14:14:00,
2013-01-03 08:23:00,21.6,18.1,30.11,WNW,285,3.0,3.0,86,0.00,,,0.00,Wunderground v.1.15,2013-01-03 14:23:00,
2013-01-03 08:28:00,21.7,18.2,30.11,WNW,290,2.0,3.0,86,0.00,,,0.00,Wunderground v.1.15,2013-01-03 14:28:00,
2013-01-03 08:33:00,21.8,18.3,30.11,WSW,250,3.0,6.0,86,0.00,,,0.00,Wunderground v.1.15,2013-01-03 14:33:00,
2013-01-03 08:38:00,21.8,18.3,30.11,WNW,283,3.0,3.0,86,0.00,,,0.00,Wunderground v.1.15,2013-01-03 14:38:00,
2013-01-03 08:48:00,21.9,18.1,30.11,SW,232,3.0,3.0,85,0.00,,,0.00,Wunderground v.1.15,2013-01-03 14:48:00,
2013-01-03 08:53:00,22.0,18.2,30.11,West,267,3.0,3.0,85,0.00,,,0.00,Wunderground v.1.15,2013-01-03 14:53:00,
2013-01-03 08:59:00,22.0,18.5,30.11,WNW,287,2.0,4.0,86,0.00,,,0.00,Wunderground v.1.15,2013-01-03 14:59:00,
2013-01-03 09:08:00,22.3,18.5,30.11,WSW,256,3.0,3.0,85,0.00,,,0.00,Wunderground v.1.15,2013-01-03 15:08:00,
2013-01-03 09:13:00,22.4,18.6,30.11,SSW,196,2.0,3.0,85,0.00,,,0.00,Wunderground v.1.15,2013-01-03 15:13:00,
2013-01-03 09:18:00,22.5,18.7,30.11,WNW,296,2.0,2.0,85,0.00,,,0.00,Wunderground v.1.15,2013-01-03 15:18:00,
2013-01-03 09:23:00,22.5,18.7,30.11,West,281,3.0,3.0,85,0.00,,,0.00,Wunderground v.1.15,2013-01-03 15:23:00,
2013-01-03 09:28:00,22.6,18.8,30.12,West,263,3.0,3.0,85,0.00,,,0.00,Wunderground v.1.15,2013-01-03 15:28:00,
2013-01-03 09:33:00,22.6,18.8,30.12,NW,314,3.0,3.0,85,0.00,,,0.00,Wunderground v.1.15,2013-01-03 15:33:00,
2013-01-03 09:38:00,22.7,18.9,30.12,WSW,251,4.0,4.0,85,0.00,,,0.00,Wunderground v.1.15,2013-01-03 15:38:00,
2013-01-03 09:48:00,22.8,19.0,30.13,WNW,297,3.0,4.0,85,0.00,,,0.00,Wunderground v.1.15,2013-01-03 15:48:00,
2013-01-03 09:58:00,23.0,19.2,30.14,North,1,3.0,4.0,85,0.00,,,0.00,Wunderground v.1.15,2013-01-03 15:58:00,
2013-01-03 10:08:00,23.1,19.3,30.14,WNW,285,3.0,3.0,85,0.00,,,0.00,Wunderground v.1.15,2013-01-03 16:08:00,
2013-01-03 10:13:00,23.1,19.3,30.14,West,276,3.0,3.0,85,0.00,,,0.00,Wunderground v.1.15,2013-01-03 16:13:00,
2013-01-03 10:18:00,23.2,19.4,30.14,West,266,3.0,4.0,85,0.00,,,0.00,Wunderground v.1.15,2013-01-03 16:18:00,
2013-01-03 10:28:00,23.4,19.3,30.14,WNW,295,4.0,4.0,84,0.00,,,0.00,Wunderground v.1.15,2013-01-03 16:28:00,
2013-01-03 10:33:00,23.5,19.4,30.14,West,259,4.0,4.0,84,0.00,,,0.00,Wunderground v.1.15,2013-01-03 16:33:00,
2013-01-03 10:38:00,23.6,19.5,30.14,WNW,295,4.0,4.0,84,0.00,,,0.00,Wunderground v.1.15,2013-01-03 16:38:00,
2013-01-03 10:43:00,23.7,19.3,30.14,West,281,3.0,4.0,83,0.00,,,0.00,Wunderground v.1.15,2013-01-03 16:43:00,
2013-01-03 10:48:00,23.8,19.4,30.14,WSW,242,3.0,3.0,83,0.00,,,0.00,Wunderground v.1.15,2013-01-03 16:48:00,
2013-01-03 10:58:00,23.9,19.5,30.14,WNW,284,3.0,7.0,83,0.00,,,0.00,Wunderground v.1.15,2013-01-03 16:58:00,
2013-01-03 11:08:00,23.9,19.5,30.14,WSW,252,3.0,4.0,83,0.00,,,0.00,Wunderground v.1.15,2013-01-03 17:08:00,
2013-01-03 11:14:00,23.8,19.4,30.14,WSW,253,3.0,6.0,83,0.00,,,0.00,Wunderground v.1.15,2013-01-03 17:14:00,
2013-01-03 11:19:00,23.8,19.4,30.14,WNW,300,4.0,4.0,83,0.00,,,0.00,Wunderground v.1.15,2013-01-03 17:19:00,
2013-01-03 11:24:00,23.8,19.4,30.14,West,266,4.0,7.0,83,0.00,,,0.00,Wunderground v.1.15,2013-01-03 17:24:00,
2013-01-03 11:34:00,23.9,19.5,30.14,West,272,4.0,5.0,83,0.00,,,0.00,Wunderground v.1.15,2013-01-03 17:34:00,
2013-01-03 11:44:00,24.1,19.4,30.13,WNW,287,3.0,3.0,82,0.00,,,0.00,Wunderground v.1.15,2013-01-03 17:44:00,
2013-01-03 11:49:00,24.1,19.4,30.13,WNW,285,4.0,4.0,82,0.00,,,0.00,Wunderground v.1.15,2013-01-03 17:49:00,
2013-01-03 11:54:00,24.3,19.6,30.13,West,280,4.0,4.0,82,0.00,,,0.00,Wunderground v.1.15,2013-01-03 17:54:00,
2013-01-03 11:59:00,24.3,19.6,30.13,WSW,256,4.0,6.0,82,0.00,,,0.00,Wunderground v.1.15,2013-01-03 17:59:00,
2013-01-03 12:09:00,24.5,19.8,30.13,West,268,4.0,4.0,82,0.00,,,0.00,Wunderground v.1.15,2013-01-03 18:09:00,
2013-01-03 12:14:00,24.7,20.0,30.12,West,264,3.0,7.0,82,0.00,,,0.00,Wunderground v.1.15,2013-01-03 18:14:00,
2013-01-03 12:19:00,24.7,20.0,30.12,NW,326,3.0,4.0,82,0.00,,,0.00,Wunderground v.1.15,2013-01-03 18:19:00,
2013-01-03 12:29:00,25.0,20.0,30.12,WSW,240,3.0,3.0,81,0.00,,,0.00,Wunderground v.1.15,2013-01-03 18:29:00,
2013-01-03 12:34:00,25.0,20.0,30.12,West,276,3.0,3.0,81,0.00,,,0.00,Wunderground v.1.15,2013-01-03 18:34:00,
2013-01-03 12:39:00,25.2,20.2,30.12,West,269,3.0,4.0,81,0.00,,,0.00,Wunderground v.1.15,2013-01-03 18:39:00,
2013-01-03 12:49:00,25.5,20.2,30.12,WSW,250,4.0,4.0,80,0.00,,,0.00,Wunderground v.1.15,2013-01-03 18:49:00,
2013-01-03 12:54:00,25.5,20.2,30.11,WNW,283,4.0,4.0,80,0.00,,,0.00,Wunderground v.1.15,2013-01-03 18:54:00,
2013-01-03 12:59:00,25.6,20.3,30.12,West,271,4.0,4.0,80,0.00,,,0.00,Wunderground v.1.15,2013-01-03 18:59:00,
2013-01-03 13:08:00,25.8,20.5,30.11,West,259,4.0,5.0,80,0.00,,,0.00,Wunderground v.1.15,2013-01-03 19:08:00,
2013-01-03 13:13:00,25.8,20.5,30.11,West,269,5.0,5.0,80,0.00,,,0.00,Wunderground v.1.15,2013-01-03 19:13:00,
2013-01-03 13:59:00,26.1,20.5,30.12,WSW,243,4.0,4.0,79,0.00,,,0.00,Wunderground v.1.15,2013-01-03 19:59:00,
2013-01-03 14:08:00,26.0,20.4,30.13,WNW,283,5.0,5.0,79,0.00,,,0.00,Wunderground v.1.15,2013-01-03 20:08:00,
2013-01-03 14:13:00,26.0,20.7,30.13,West,269,4.0,7.0,80,0.00,,,0.00,Wunderground v.1.15,2013-01-03 20:13:00,
2013-01-03 14:18:00,26.1,21.1,30.13,WSW,249,4.0,6.0,81,0.00,,,0.00,Wunderground v.1.15,2013-01-03 20:18:00,
2013-01-03 14:23:00,26.1,20.8,30.13,WSW,255,4.0,6.0,80,0.00,,,0.00,Wunderground v.1.15,2013-01-03 20:23:00,
2013-01-03 14:28:00,25.9,20.6,30.13,WSW,243,5.0,7.0,80,0.00,,,0.00,Wunderground v.1.15,2013-01-03 20:28:00,
2013-01-03 14:33:00,25.9,20.6,30.13,WSW,242,5.0,7.0,80,0.00,,,0.00,Wunderground v.1.15,2013-01-03 20:33:00,
2013-01-03 14:43:00,26.2,20.9,30.13,WSW,255,3.0,5.0,80,0.00,,,0.00,Wunderground v.1.15,2013-01-03 20:43:00,
2013-01-03 14:53:00,26.0,20.4,30.14,WSW,245,5.0,5.0,79,0.00,,,0.00,Wunderground v.1.15,2013-01-03 20:53:00,
2013-01-03 14:58:00,25.9,20.3,30.14,West,267,5.0,5.0,79,0.00,,,0.00,Wunderground v.1.15,2013-01-03 20:58:00,
2013-01-03 15:08:00,25.6,20.0,30.15,WSW,245,4.0,4.0,79,0.00,,,0.00,Wunderground v.1.15,2013-01-03 21:08:00,
2013-01-03 15:18:00,25.5,19.9,30.15,WSW,248,4.0,6.0,79,0.00,,,0.00,Wunderground v.1.15,2013-01-03 21:18:00,
2013-01-03 15:28:00,25.4,20.1,30.16,West,276,3.0,3.0,80,0.00,,,0.00,Wunderground v.1.15,2013-01-03 21:28:00,
2013-01-03 15:33:00,25.3,19.7,30.16,WSW,250,3.0,3.0,79,0.00,,,0.00,Wunderground v.1.15,2013-01-03 21:33:00,
2013-01-03 15:38:00,25.3,19.7,30.16,WSW,249,3.0,3.0,79,0.00,,,0.00,Wunderground v.1.15,2013-01-03 21:38:00,
2013-01-03 15:48:00,25.0,19.4,30.16,WSW,245,3.0,5.0,79,0.00,,,0.00,Wunderground v.1.15,2013-01-03 21:48:00,
2013-01-03 15:53:00,24.7,19.1,30.16,West,269,3.0,5.0,79,0.00,,,0.00,Wunderground v.1.15,2013-01-03 21:53:00,
2013-01-03 15:58:00,24.3,18.7,30.16,WSW,250,3.0,3.0,79,0.00,,,0.00,Wunderground v.1.15,2013-01-03 21:58:00,
2013-01-03 16:08:00,23.8,18.5,30.16,WSW,240,2.0,2.0,80,0.00,,,0.00,Wunderground v.1.15,2013-01-03 22:08:00,
2013-01-03 16:14:00,23.5,17.9,30.16,WSW,248,2.0,3.0,79,0.00,,,0.00,Wunderground v.1.15,2013-01-03 22:14:00,
2013-01-03 16:19:00,23.4,18.1,30.16,West,266,2.0,2.0,80,0.00,,,0.00,Wunderground v.1.15,2013-01-03 22:19:00,
2013-01-03 16:29:00,23.1,17.8,30.17,WSW,240,2.0,2.0,80,0.00,,,0.00,Wunderground v.1.15,2013-01-03 22:29:00,
2013-01-03 16:34:00,22.7,17.5,30.17,SW,220,1.0,2.0,80,0.00,,,0.00,Wunderground v.1.15,2013-01-03 22:34:00,
2013-01-03 16:39:00,22.3,17.4,30.17,WSW,252,1.0,3.0,81,0.00,,,0.00,Wunderground v.1.15,2013-01-03 22:39:00,
2013-01-03 16:44:00,22.2,17.3,30.17,WSW,240,2.0,3.0,81,0.00,,,0.00,Wunderground v.1.15,2013-01-03 22:44:00,
2013-01-03 16:49:00,22.0,17.1,30.17,SW,232,2.0,3.0,81,0.00,,,0.00,Wunderground v.1.15,2013-01-03 22:49:00,
2013-01-03 16:59:00,21.9,17.0,30.17,WSW,248,3.0,3.0,81,0.00,,,0.00,Wunderground v.1.15,2013-01-03 22:59:00,
2013-01-03 17:09:00,21.8,16.9,30.17,WSW,240,3.0,4.0,81,0.00,,,0.00,Wunderground v.1.15,2013-01-03 23:09:00,
2013-01-03 17:14:00,21.8,16.9,30.17,WSW,256,4.0,4.0,81,0.00,,,0.00,Wunderground v.1.15,2013-01-03 23:14:00,
2013-01-03 17:19:00,21.6,16.7,30.18,WSW,240,4.0,4.0,81,0.00,,,0.00,Wunderground v.1.15,2013-01-03 23:19:00,
2013-01-03 17:24:00,21.4,16.5,30.18,WSW,248,4.0,6.0,81,0.00,,,0.00,Wunderground v.1.15,2013-01-03 23:24:00,
2013-01-03 17:29:00,21.1,16.2,30.18,WSW,245,4.0,4.0,81,0.00,,,0.00,Wunderground v.1.15,2013-01-03 23:29:00,
2013-01-03 17:39:00,20.8,15.9,30.18,West,259,4.0,5.0,81,0.00,,,0.00,Wunderground v.1.15,2013-01-03 23:39:00,
2013-01-03 17:48:00,20.7,16.1,30.18,West,272,5.0,5.0,82,0.00,,,0.00,Wunderground v.1.15,2013-01-03 23:48:00,
2013-01-03 17:53:00,20.5,15.9,30.18,West,278,5.0,5.0,82,0.00,,,0.00,Wunderground v.1.15,2013-01-03 23:53:00,
2013-01-03 17:59:00,20.4,15.8,30.18,SW,232,4.0,5.0,82,0.00,,,0.00,Wunderground v.1.15,2013-01-03 23:59:00,
2013-01-03 18:09:00,20.3,15.7,30.18,WSW,257,5.0,5.0,82,0.00,,,0.00,Wunderground v.1.15,2013-01-04 00:09:00,
2013-01-03 18:14:00,20.2,15.3,30.18,SW,222,6.0,6.0,81,0.00,,,0.00,Wunderground v.1.15,2013-01-04 00:14:00,
2013-01-03 18:19:00,20.1,15.2,30.18,SW,225,5.0,5.0,81,0.00,,,0.00,Wunderground v.1.15,2013-01-04 00:19:00,
2013-01-03 18:24:00,20.0,15.1,30.18,SSW,203,5.0,5.0,81,0.00,,,0.00,Wunderground v.1.15,2013-01-04 00:24:00,
2013-01-03 18:29:00,19.9,15.0,30.18,WSW,239,5.0,6.0,81,0.00,,,0.00,Wunderground v.1.15,2013-01-04 00:29:00,
2013-01-03 18:38:00,19.8,14.9,30.18,SW,231,4.0,4.0,81,0.00,,,0.00,Wunderground v.1.15,2013-01-04 00:38:00,
2013-01-03 18:48:00,19.4,14.8,30.19,WSW,257,3.0,3.0,82,0.00,,,0.00,Wunderground v.1.15,2013-01-04 00:48:00,
2013-01-03 18:53:00,19.2,14.6,30.19,SSW,210,3.0,3.0,82,0.00,,,0.00,Wunderground v.1.15,2013-01-04 00:53:00,
2013-01-03 18:59:00,19.0,14.4,30.19,SSW,200,2.0,2.0,82,0.00,,,0.00,Wunderground v.1.15,2013-01-04 00:59:00,
2013-01-03 19:08:00,18.1,13.8,30.19,SW,231,1.0,1.0,83,0.00,,,0.00,Wunderground v.1.15,2013-01-04 01:08:00,
2013-01-03 19:18:00,17.9,13.9,30.18,WSW,238,2.0,6.0,84,0.00,,,0.00,Wunderground v.1.15,2013-01-04 01:18:00,
2013-01-03 19:28:00,17.8,13.8,30.19,West,269,4.0,6.0,84,0.00,,,0.00,Wunderground v.1.15,2013-01-04 01:28:00,
2013-01-03 19:33:00,17.7,13.7,30.19,West,274,4.0,6.0,84,0.00,,,0.00,Wunderground v.1.15,2013-01-04 01:33:00,
2013-01-03 19:38:00,17.6,13.6,30.19,SSW,208,5.0,5.0,84,0.00,,,0.00,Wunderground v.1.15,2013-01-04 01:38:00,
2013-01-03 19:43:00,17.4,13.4,30.18,WSW,239,4.0,5.0,84,0.00,,,0.00,Wunderground v.1.15,2013-01-04 01:43:00,
2013-01-03 19:53:00,16.8,12.8,30.18,WSW,257,4.0,7.0,84,0.00,,,0.00,Wunderground v.1.15,2013-01-04 01:53:00,
2013-01-03 19:58:00,16.6,12.6,30.18,West,264,4.0,5.0,84,0.00,,,0.00,Wunderground v.1.15,2013-01-04 01:58:00,
2013-01-03 20:08:00,16.2,12.2,30.18,SW,221,4.0,4.0,84,0.00,,,0.00,Wunderground v.1.15,2013-01-04 02:08:00,
2013-01-03 20:13:00,16.1,12.1,30.18,WSW,249,4.0,7.0,84,0.00,,,0.00,Wunderground v.1.15,2013-01-04 02:13:00,
2013-01-03 20:23:00,15.8,11.8,30.18,WNW,283,5.0,5.0,84,0.00,,,0.00,Wunderground v.1.15,2013-01-04 02:23:00,
2013-01-03 20:28:00,15.7,11.7,30.18,WSW,256,5.0,8.0,84,0.00,,,0.00,Wunderground v.1.15,2013-01-04 02:28:00,
2013-01-03 20:33:00,15.5,11.5,30.18,SW,235,5.0,10.0,84,0.00,,,0.00,Wunderground v.1.15,2013-01-04 02:33:00,
2013-01-03 20:38:00,15.3,11.3,30.18,West,266,5.0,5.0,84,0.00,,,0.00,Wunderground v.1.15,2013-01-04 02:38:00,
2013-01-03 20:43:00,15.2,11.2,30.18,WSW,257,5.0,5.0,84,0.00,,,0.00,Wunderground v.1.15,2013-01-04 02:43:00,
2013-01-03 20:48:00,15.0,11.0,30.17,WSW,238,4.0,5.0,84,0.00,,,0.00,Wunderground v.1.15,2013-01-04 02:48:00,
2013-01-03 20:58:00,14.7,10.7,30.17,WSW,245,3.0,4.0,84,0.00,,,0.00,Wunderground v.1.15,2013-01-04 02:58:00,
2013-01-03 21:08:00,14.5,10.5,30.18,WNW,291,4.0,4.0,84,0.00,,,0.00,Wunderground v.1.15,2013-01-04 03:08:00,
2013-01-03 21:14:00,14.3,10.1,30.18,WNW,290,4.0,4.0,83,0.00,,,0.00,Wunderground v.1.15,2013-01-04 03:14:00,
2013-01-03 21:19:00,14.2,10.0,30.18,West,276,3.0,4.0,83,0.00,,,0.00,Wunderground v.1.15,2013-01-04 03:19:00,
2013-01-03 21:24:00,14.0,9.8,30.18,West,281,3.0,7.0,83,0.00,,,0.00,Wunderground v.1.15,2013-01-04 03:24:00,
2013-01-03 21:34:00,13.6,9.4,30.18,West,271,5.0,6.0,83,0.00,,,0.00,Wunderground v.1.15,2013-01-04 03:34:00,
2013-01-03 21:39:00,13.4,9.2,30.18,South,183,5.0,5.0,83,0.00,,,0.00,Wunderground v.1.15,2013-01-04 03:39:00,
2013-01-03 21:49:00,13.1,8.9,30.18,West,267,4.0,4.0,83,0.00,,,0.00,Wunderground v.1.15,2013-01-04 03:49:00,
2013-01-03 21:54:00,12.9,8.7,30.18,WSW,243,4.0,4.0,83,0.00,,,0.00,Wunderground v.1.15,2013-01-04 03:54:00,
2013-01-03 21:59:00,12.8,8.6,30.18,SW,231,4.0,4.0,83,0.00,,,0.00,Wunderground v.1.15,2013-01-04 03:59:00,
2013-01-03 22:09:00,12.4,8.0,30.19,West,281,4.0,4.0,82,0.00,,,0.00,Wunderground v.1.15,2013-01-04 04:09:00,
2013-01-03 22:14:00,12.3,7.9,30.19,NW,305,5.0,5.0,82,0.00,,,0.00,Wunderground v.1.15,2013-01-04 04:14:00,
2013-01-03 22:19:00,12.1,7.7,30.19,WNW,288,5.0,5.0,82,0.00,,,0.00,Wunderground v.1.15,2013-01-04 04:19:00,
2013-01-03 22:24:00,11.9,7.2,30.18,SW,232,4.0,6.0,81,0.00,,,0.00,Wunderground v.1.15,2013-01-04 04:24:00,
2013-01-03 22:34:00,11.5,6.5,30.18,WSW,250,5.0,5.0,80,0.00,,,0.00,Wunderground v.1.15,2013-01-04 04:34:00,
2013-01-03 22:49:00,11.2,6.2,30.17,WSW,245,6.0,7.0,80,0.00,,,0.00,Wunderground v.1.15,2013-01-04 04:49:00,
2013-01-03 22:59:00,10.8,6.1,30.17,West,278,4.0,4.0,81,0.00,,,0.00,Wunderground v.1.15,2013-01-04 04:59:00,
2013-01-03 23:04:00,10.6,5.9,30.17,West,262,3.0,4.0,81,0.00,,,0.00,Wunderground v.1.15,2013-01-04 05:04:00,
2013-01-03 23:09:00,10.4,5.7,30.17,West,269,3.0,3.0,81,0.00,,,0.00,Wunderground v.1.15,2013-01-04 05:09:00,
2013-01-03 23:14:00,10.3,5.9,30.17,WSW,250,4.0,4.0,82,0.00,,,0.00,Wunderground v.1.15,2013-01-04 05:14:00,
2013-01-03 23:23:00,10.0,5.6,30.17,WSW,245,4.0,4.0,82,0.00,,,0.00,Wunderground v.1.15,2013-01-04 05:23:00,
2013-01-03 23:33:00,9.8,5.4,30.16,WNW,287,4.0,4.0,82,0.00,,,0.00,Wunderground v.1.15,2013-01-04 05:33:00,
2013-01-03 23:38:00,9.8,5.4,30.16,WSW,249,3.0,5.0,82,0.00,,,0.00,Wunderground v.1.15,2013-01-04 05:38:00,
2013-01-03 23:43:00,9.8,5.7,30.16,SW,228,4.0,5.0,83,0.00,,,0.00,Wunderground v.1.15,2013-01-04 05:43:00,
2013-01-03 23:48:00,9.7,5.6,30.16,SSW,205,4.0,4.0,83,0.00,,,0.00,Wunderground v.1.15,2013-01-04 05:48:00,
2013-01-03 23:53:00,9.7,5.6,30.16,WSW,246,4.0,4.0,83,0.00,,,0.00,Wunderground v.1.15,2013-01-04 05:53:00,
2013-01-03 23:59:00,9.8,5.7,30.16,WSW,242,4.0,4.0,83,0.00,,,0.00,Wunderground v.1.15,2013-01-04 05:59:00,